Flag for Belgium Weather past 2 weeks in Ghent, Belgium

Now
36 °F

Fog.


Feels Like: 36 °F
Forecast: 38 / 47 °F
Wind: 2 mph from Southwest

Location: Munte

Current Time: Jan 25, 2015 at 11:58:53 AM

Latest Report: Jan 25, 2015 at 11:00 AM


Visibility: 5 mi

Pressure: 30.47 "Hg

Humidity: 94%

Dew point: 35 °F

Location of GhentLocation

Historic Weather in Ghent — Graph

°F

Ghent temperature yesterday

Maximum temperature yesterday: 42 °F (at 1:00 PM)
Minimum temperature yesterday: 28 °F (at 12:00 AM)
Average temperature yesterday: 35 °F

Past Weeks' High & Low Weather Summary

 TemperatureHumidityPressure
High55 °F (Jan 10, 3:00 PM)100% (Jan 19, 1:00 AM)30.47 "Hg (Jan 19, 1:00 AM)
Low26 °F (Jan 23, 9:00 AM)61% (Jan 11, 1:00 PM)29.35 "Hg (Jan 15, 12:00 PM)
Average38 °F86%29.95 "Hg
* Reported Jan 10 10:00 AM — Jan 25 10:00 AM, Ghent, Weather by CustomWeather, © 2014

Note: Actual official high and low records may vary slightly from our data, if they occured in-between our weather recording intervals... More about our weather records

Advertising

Ghent weather history for previous 24 hours

 ConditionsComfort  
Time TempWeatherWind HumidityBarometerVisibility
10:00 AM
Jan 25
35 °FChilly.2 mph95%30.47 "Hg5 mi
9:00 AM35 °FChilly.2 mph95%30.47 "Hg5 mi
8:00 AM34 °FChilly.2 mph97%30.46 "Hg4 mi
7:00 AM34 °FChilly.2 mph96%30.45 "Hg4 mi
6:00 AM34 °FChilly.N/A95%30.45 "Hg4 mi
5:00 AM33 °FChilly.N/A96%30.44 "Hg5 mi
3:00 AM33 °FChilly.N/A94%30.43 "Hg6 mi
2:00 AM33 °FChilly.N/A93%30.43 "Hg6 mi
1:00 AM33 °FChilly.N/A91%30.42 "Hg7 mi
12:00 AM34 °FChilly.N/A90%30.42 "Hg7 mi
11:00 PM
Jan 24
34 °FChilly.N/A89%30.40 "Hg7 mi
9:00 PM37 °FChilly.2 mph80%30.39 "Hg9 mi
8:00 PM38 °FChilly.N/A78%30.37 "Hg9 mi
7:00 PM39 °FChilly.2 mph78%30.36 "Hg11 mi
6:00 PM39 °FChilly.2 mph77%30.33 "Hg11 mi
5:00 PM40 °FQuite cool.3 mph73%30.29 "Hg14 mi
4:00 PM41 °FQuite cool.6 mph73%30.26 "Hg15 mi
3:00 PM42 °FQuite cool.7 mph70%30.24 "Hg18 mi
2:00 PM42 °FQuite cool.6 mph74%30.22 "Hg11 mi
1:00 PM42 °FQuite cool.7 mph77%30.20 "Hg17 mi
12:00 PM41 °FQuite cool.5 mph84%30.18 "Hg11 mi
11:00 AM37 °FChilly.N/A95%30.16 "Hg4 mi
Weather by CustomWeather, © 2014

See weather overviewHow to use our weather pages